Temperature
6 6 6 7 7 7 7 7 7 7 7 7 7 7 7 7 7 6 6 6 6 6 6 5 5 5 5 4 4 4 3 3 3 3 3 3 3 3 3 3 3 3 3
6 6 6 6 6 6 6 6 6 6 6 6 6 6 6 6 6 6 6 6 6 5 5 5 5 5 4 4 4 3 3 3 3 3 3 3 3 3 3 3 2 2 2
5 5 5 5 5 5 6 6 6 6 6 6 6 6 6 6 6 5 5 5 5 5 5 4 4 4 4 3 3 3 3 3 2 2 2 3 2 2 2 2 2 2 2
5 5 5 5 5 5 5 5 5 5 5 5 5 5 5 5 5 5 5 5 4 4 4 4 4 3 3 3 3 3 2 2 2 2 2 2 2 2 2 1 2 2 1
4 4 4 4 4 4 4 4 4 4 4 4 4 5 4 4 4 4 4 4 4 4 4 3 3 3 3 2 2 2 2 2 2 2 2 1 1 1 1 1 1 1 1
3 3 3 3 3 4 4 4 3 4 4 4 4 4 4 4 4 3 3 3 3 3 3 3 3 3 2 2 2 2 2 1 1 1 1 1 1 1 0 0 -0 -0 -0
2 2 3 3 3 3 3 3 3 3 3 3 3 3 3 3 3 3 3 3 3 3 3 2 2 2 2 2 2 2 1 1 1 1 1 1 0 0 -0 -0 -0 -1 -1
2 2 2 2 2 2 2 2 2 2 2 2 2 2 2 2 2 2 2 2 2 2 2 2 2 2 2 1 1 1 1 1 1 1 0 0 0 -0 -1 -1 -1 -1 -1
1 1 1 1 1 1 1 1 1 1 1 1 1 2 2 1 1 1 1 1 2 2 2 1 1 1 1 1 1 1 1 1 1 0 0 -0 -0 -1 -1 -1 -1 -1 -1
0 0 0 1 1 1 1 1 1 1 1 1 1 1 1 1 1 1 1 1 1 1 1 1 1 1 1 0 0 0 0 0 0 0 0 -0 -0 -1 -1 -1 -1 -2 -2
-1 -0 -0 -0 -0 -0 -0 0 0 0 0 0 0 0 0 0 0 -0 0 0 0 0 1 0 0 0 -0 -0 -0 -0 -1 -1 -0 -0 -0 -1 -1 -1 -1 -1 -1 -2 -2
-1 -1 -1 -1 -1 -1 -1 -1 -1 -1 -1 -1 -0 -0 -0 -0 -0 -0 -0 -0 -0 -0 -0 -0 -0 -0 -1 -1 -1 -1 -1 -1 -1 -1 -1 -1 -1 -1 -1 -1 -1 -2 -2
-2 -2 -2 -2 -2 -2 -1 -1 -1 -1 -1 -1 -1 -1 -1 -1 -1 -1 -1 -1 -1 -1 -1 -1 -1 -1 -1 -1 -1 -1 -1 -1 -1 -1 -1 -1 -1 -1 -1 -1 -1 -2 -2
-2 -2 -2 -2 -2 -2 -2 -2 -2 -2 -2 -2 -2 -2 -1 -1 -1 -1 -1 -1 -1 -1 -1 -1 -1 -1 -1 -1 -1 -1 -1 -2 -2 -2 -2 -2 -2 -2 -2 -2 -2 -2 -2
-3 -3 -3 -3 -3 -2 -3 -3 -3 -3 -3 -3 -2 -2 -2 -2 -2 -2 -2 -2 -2 -2 -2 -2 -1 -1 -1 -2 -2 -2 -2 -2 -2 -2 -2 -2 -2 -2 -2 -2 -2 -2 -3
-3 -3 -3 -3 -3 -3 -3 -3 -3 -3 -3 -3 -3 -3 -3 -3 -2 -2 -2 -2 -2 -2 -2 -2 -2 -2 -2 -2 -2 -2 -2 -2 -2 -2 -3 -3 -3 -3 -3 -3 -3 -3 -3
-3 -3 -3 -4 -4 -4 -4 -4 -4 -4 -4 -4 -4 -3 -3 -3 -3 -3 -3 -3 -3 -3 -3 -2 -3 -3 -3 -3 -3 -3 -3 -3 -3 -3 -3 -3 -3 -3 -3 -3 -3 -3 -4
-4 -4 -4 -4 -4 -4 -4 -4 -4 -4 -4 -4 -4 -4 -4 -3 -3 -3 -3 -3 -3 -3 -3 -3 -3 -3 -3 -3 -3 -3 -3 -3 -3 -3 -3 -3 -3 -3 -3 -3 -4 -4 -4
-4 -4 -4 -4 -4 -4 -4 -5 -5 -5 -4 -4 -4 -4 -4 -4 -4 -4 -4 -3 -3 -3 -3 -4 -3 -4 -4 -3 -3 -4 -4 -3 -3 -3 -3 -3 -4 -4 -4 -4 -4 -4 -4
-5 -4 -4 -5 -5 -5 -5 -5 -5 -5 -5 -5 -4 -4 -4 -4 -4 -4 -4 -4 -4 -4 -4 -4 -4 -4 -4 -4 -4 -4 -4 -4 -4 -4 -4 -4 -4 -4 -4 -4 -4 -4 -4
-5 -5 -5 -5 -5 -5 -5 -5 -5 -5 -5 -5 -5 -5 -5 -5 -4 -4 -4 -4 -4 -4 -4 -4 -4 -4 -4 -4 -4 -4 -4 -4 -4 -4 -4 -4 -4 -4 -4 -4 -4 -4 -4
-5 -5 -5 -5 -5 -6 -6 -6 -6 -5 -6 -6 -5 -5 -5 -5 -5 -5 -5 -5 -5 -5 -5 -5 -5 -5 -5 -4 -4 -4 -4 -4 -4 -4 -4 -4 -4 -4 -4 -4 -4 -4 -4
-6 -6 -6 -6 -6 -6 -6 -6 -6 -6 -6 -6 -6 -6 -6 -5 -5 -5 -5 -5 -5 -5 -5 -5 -5 -5 -5 -5 -5 -5 -5 -4 -5 -5 -4 -4 -4 -4 -4 -4 -4 -4 -4
-6 -6 -6 -6 -6 -6 -6 -6 -6 -6 -6 -6 -6 -6 -6 -6 -6 -6 -5 -5 -5 -5 -5 -5 -5 -5 -5 -5 -5 -5 -5 -5 -5 -5 -5 -4 -4 -4 -4 -4 -4 -4 -4
-6 -6 -6 -6 -6 -6 -6 -6 -6 -6 -6 -6 -6 -6 -6 -6 -6 -6 -6 -6 -6 -5 -5 -5 -5 -5 -5 -5 -5 -5 -5 -5 -5 -5 -5 -5 -5 -4 -4 -4 -4 -4 -4
-7 -7 -7 -7 -6 -6 -7 -7 -7 -7 -7 -7 -7 -6 -6 -6 -6 -6 -6 -6 -6 -6 -5 -5 -5 -5 -5 -5 -5 -5 -5 -5 -5 -5 -5 -5 -5 -4 -4 -4 -4 -4 -4
Wind_Speed
2 1 2 2 2 3 3 3 3 2 3 4 4 4 4 4 4 4 4 4 4 3 2 3 3 2 2 1 1 1 2 2 4 5 4 5 5 6 9 10 11 10 11
2 2 2 2 2 2 3 3 3 3 3 3 3 4 4 4 4 5 5 4 4 4 3 3 3 2 2 2 2 2 2 2 3 6 5 5 6 6 7 7 9 10 10
1 2 2 1 1 2 3 3 3 3 3 3 3 3 4 4 4 4 4 4 4 4 3 4 4 3 3 2 2 2 2 2 2 3 5 5 5 5 6 7 7 7 9
1 1 1 1 1 1 2 2 3 2 2 3 3 3 3 4 4 3 3 3 3 2 2 3 3 3 4 3 3 2 2 2 2 3 4 5 5 5 5 6 7 6 7
1 1 1 1 1 2 2 2 2 2 2 2 2 2 2 2 3 3 3 3 3 2 1 1 2 2 2 2 2 2 1 1 2 3 4 5 5 6 5 5 7 8 7
1 1 1 1 2 2 2 2 2 2 2 2 3 2 2 1 3 4 4 3 2 2 2 1 1 1 1 2 3 3 2 2 3 3 4 5 6 6 5 6 6 7 6
1 1 1 2 2 2 2 3 2 2 2 2 2 2 1 1 2 2 3 3 2 2 2 1 1 1 1 1 2 3 3 4 3 3 4 5 5 5 5 6 6 7 7
2 1 1 2 2 2 2 2 2 2 2 2 2 2 1 0 1 2 2 2 2 1 2 2 1 1 1 0 0 1 2 3 4 3 3 4 4 4 4 4 6 6 6
2 2 1 1 2 2 2 2 1 2 1 1 2 2 2 0 1 1 2 1 1 0 0 0 1 1 2 2 0 1 3 3 5 6 6 6 7 7 6 4 5 5 6
2 1 1 1 1 1 1 1 1 1 1 1 2 2 1 0 0 1 2 1 1 0 0 0 1 1 2 1 0 1 3 4 4 4 5 6 6 6 7 4 3 4 5
2 2 1 1 1 1 1 1 1 1 1 1 2 1 1 1 0 0 1 1 1 0 1 1 1 3 2 2 2 1 3 3 2 3 3 4 4 4 5 5 4 3 4
2 2 2 1 1 1 1 1 1 1 1 1 1 1 0 1 1 1 0 1 1 0 1 1 1 2 3 2 2 3 4 3 2 2 3 3 4 5 5 6 7 6 5
2 1 1 1 1 1 1 2 1 1 1 1 1 1 0 1 1 1 0 0 1 0 1 1 2 2 3 2 3 3 3 2 2 2 3 4 4 4 5 6 7 7 7
1 1 1 1 1 1 0 1 1 1 1 1 1 1 1 1 1 1 1 0 1 1 0 1 2 3 3 3 3 2 2 1 2 2 3 4 4 4 4 5 5 6 5
1 1 0 0 0 1 1 0 1 1 2 2 2 2 2 2 2 1 1 0 0 0 1 1 2 2 2 2 2 2 2 2 3 3 3 3 4 4 5 5 4 5 5
1 1 1 0 0 0 0 1 2 1 1 1 1 2 2 2 2 1 0 1 1 2 2 1 1 1 1 2 2 2 2 2 3 3 3 3 4 4 5 5 5 5 5
1 1 1 1 1 1 1 1 0 2 2 0 0 1 1 1 2 1 1 2 2 3 2 1 0 1 1 2 2 2 2 2 2 2 3 3 3 4 4 4 5 5 5
1 2 2 2 1 1 1 1 1 1 1 1 1 1 1 1 1 2 2 2 1 1 0 0 1 1 1 1 2 2 2 2 2 2 2 3 3 4 4 4 5 5 6
2 1 1 1 1 1 1 1 1 1 1 1 1 1 1 1 1 1 2 1 1 0 0 0 1 1 1 2 2 2 2 2 2 2 3 3 3 3 4 4 5 7 6
2 2 2 2 2 2 2 2 1 1 1 1 0 0 1 1 0 0 0 1 1 1 1 1 1 1 1 2 2 2 2 2 2 2 3 3 3 3 4 4 5 5 5
1 2 2 1 2 2 2 2 2 2 1 1 1 1 0 0 0 0 0 0 1 1 1 1 1 1 2 2 2 2 2 2 2 3 3 3 3 4 4 4 4 5 5
1 1 1 2 2 2 2 2 2 2 1 1 0 0 0 1 0 0 0 0 0 0 1 1 1 2 2 2 2 2 2 2 3 3 3 3 3 3 4 4 4 4 4
1 1 1 2 2 2 2 1 2 1 1 1 1 0 0 0 0 1 1 1 1 1 1 1 1 2 2 3 3 3 3 3 3 3 3 3 3 3 3 4 4 4 4
1 1 2 2 2 2 2 2 1 1 1 1 1 1 0 0 1 1 1 1 1 1 1 2 2 3 3 4 4 4 4 5 5 4 4 3 3 3 3 3 4 4 4
1 2 2 2 2 2 2 2 2 2 1 1 1 1 0 0 1 1 1 1 2 2 2 2 2 3 4 5 5 5 6 6 5 4 3 2 2 3 3 3 3 3 3
1 2 2 2 2 2 2 2 2 2 1 1 1 1 1 1 1 1 1 1 2 2 2 2 3 4 5 5 5 5 6 5 4 3 2 2 2 2 2 2 3 2 3
Wind_Direction
173 167 166 166 161 159 168 176 168 171 177 189 186 179 176 179 178 176 182 173 176 189 187 190 214 218 228 249 256 249 250 245 272 295 297 309 317 320 321 320 317 315 315
172 166 174 164 157 165 176 176 170 174 181 181 178 178 177 180 182 185 185 179 182 190 197 201 219 219 229 246 252 259 261 260 268 295 307 315 314 314 318 320 322 319 314
153 156 152 150 162 180 186 177 171 173 175 174 170 177 181 184 185 188 185 183 189 197 201 206 219 211 229 250 256 260 269 290 287 292 303 312 311 319 321 319 317 318 320
114 137 151 166 183 176 160 167 172 167 172 179 182 177 180 187 182 176 174 173 180 194 203 211 220 216 227 240 249 256 269 294 309 305 306 312 311 317 324 324 326 327 322
86 123 150 130 122 122 126 139 140 140 159 166 160 164 167 177 171 171 168 163 170 182 202 226 236 245 261 261 276 270 267 272 301 308 309 315 319 329 327 322 322 323 315
47 91 95 102 106 115 122 121 125 126 129 138 145 152 151 155 159 158 156 162 172 178 201 243 261 273 307 315 315 316 306 287 291 291 298 307 311 316 318 322 322 327 324
29 48 73 88 93 105 110 109 119 131 125 126 134 135 140 152 135 141 138 151 166 183 198 211 254 301 345 289 329 348 341 331 313 290 291 297 303 311 320 320 319 317 306
18 29 52 92 101 103 107 118 127 125 133 134 131 122 105 92 101 100 122 132 159 181 195 194 201 257 276 296 311 336 325 320 322 316 281 291 302 307 302 299 302 311 304
14 14 25 97 119 120 124 132 125 123 116 126 125 126 122 89 77 81 84 115 140 197 223 189 179 245 295 335 10 323 321 322 336 334 329 334 336 338 342 341 338 336 322
347 341 12 101 133 145 156 150 132 125 126 120 116 122 131 132 67 62 78 111 105 350 330 319 330 320 326 6 67 291 307 312 328 338 343 343 343 339 347 348 324 323 320
344 360 29 71 120 135 129 135 133 123 115 120 120 113 139 166 251 164 86 105 142 203 276 305 318 341 348 -0 353 304 310 329 325 320 324 334 342 344 341 337 329 304 301
5 12 14 35 90 112 113 103 114 129 131 136 124 111 16 260 278 265 154 58 67 180 268 303 318 356 0 4 358 346 351 357 347 337 336 339 338 336 332 334 331 324 299
17 15 15 22 50 101 139 152 153 157 166 170 163 168 215 298 274 270 269 328 15 9 280 325 0 15 9 9 9 11 15 8 354 346 333 326 323 321 332 337 341 342 337
6 12 33 57 47 34 42 167 175 185 195 194 192 193 207 246 248 240 241 315 27 22 14 44 42 40 33 19 20 16 5 353 348 326 323 322 327 334 338 338 336 340 337
339 337 340 37 99 47 7 286 227 229 218 214 212 205 204 225 246 237 156 169 189 146 70 54 40 30 22 11 11 12 9 7 359 346 336 334 338 342 339 338 337 336 336
310 296 272 240 180 162 133 28 8 311 272 259 240 230 251 242 228 216 182 107 84 93 89 76 39 12 357 348 344 346 355 357 348 340 335 334 336 334 334 335 337 337 334
262 258 244 225 205 198 177 153 19 3 1 326 275 269 262 238 200 184 159 131 116 98 91 88 19 331 330 330 326 328 330 330 332 333 331 331 332 330 330 332 335 336 333
261 249 240 225 211 205 202 196 199 210 292 321 320 300 313 282 194 158 146 128 120 76 93 150 278 290 300 306 306 316 323 325 332 330 324 326 327 326 327 328 329 330 328
255 238 225 207 199 196 193 188 186 189 205 261 320 349 24 25 112 127 125 137 169 179 237 255 272 280 288 290 296 300 302 309 322 320 316 318 320 320 320 322 322 325 328
255 242 232 194 183 183 181 177 179 182 188 201 240 318 20 31 48 102 107 132 158 192 231 250 265 270 278 287 294 291 295 306 311 308 309 310 311 310 311 317 319 319 321
251 235 220 192 183 184 183 183 184 185 187 196 229 258 104 105 97 317 168 174 197 220 247 261 270 276 282 284 285 285 289 293 292 292 299 303 306 307 309 312 315 318 321
231 216 182 174 179 182 178 178 178 180 184 187 194 278 74 73 98 300 271 247 252 286 280 271 277 288 287 286 284 283 282 284 284 284 290 296 300 305 310 313 318 321 324
209 181 165 162 171 181 170 161 168 176 183 181 168 150 154 142 293 294 294 288 304 305 310 299 290 300 310 304 293 279 272 273 276 274 280 291 298 303 306 309 312 315 322
180 170 165 163 165 168 165 170 178 182 180 174 171 179 198 241 280 288 291 304 299 300 299 297 290 286 295 303 304 294 288 290 288 281 272 274 286 297 302 305 309 312 317
164 162 165 169 170 166 165 173 177 171 174 179 181 200 219 244 280 291 296 304 295 292 295 297 295 291 293 298 301 302 302 307 304 300 291 277 283 290 295 302 310 319 325
159 161 164 168 172 173 176 181 178 175 177 183 194 210 219 233 255 271 289 303 309 303 302 303 301 301 302 306 304 307 311 313 312 314 321 297 288 293 301 303 314 326 332
Height
1479 1481 1482 1483 1485 1486 1488 1489 1490 1492 1493 1495 1496 1497 1498 1499 1500 1501 1501 1502 1502 1502 1502 1502 1502 1502 1502 1501 1500 1499 1498 1497 1494 1491 1490 1487 1484 1481 1478 1475 1472 1468 1464
1477 1478 1479 1480 1481 1483 1484 1486 1487 1488 1490 1491 1492 1494 1495 1496 1496 1497 1498 1498 1499 1499 1499 1499 1499 1499 1498 1498 1497 1496 1495 1494 1492 1488 1486 1483 1481 1478 1475 1471 1468 1465 1461
1475 1476 1476 1477 1478 1479 1481 1482 1484 1485 1486 1487 1489 1490 1491 1492 1492 1493 1494 1494 1495 1495 1496 1496 1496 1495 1495 1494 1493 1493 1492 1491 1489 1486 1483 1480 1478 1475 1471 1468 1465 1461 1458
1472 1473 1474 1475 1475 1476 1477 1478 1480 1482 1483 1484 1485 1486 1487 1488 1489 1490 1490 1491 1492 1492 1492 1493 1492 1492 1491 1491 1490 1489 1488 1487 1486 1483 1480 1477 1475 1472 1469 1465 1460 1457 1454
1470 1470 1471 1472 1473 1473 1474 1475 1477 1478 1480 1481 1482 1483 1484 1485 1486 1487 1487 1488 1488 1488 1489 1489 1489 1488 1488 1488 1487 1486 1485 1484 1482 1479 1477 1475 1472 1469 1465 1462 1458 1454 1450
1467 1468 1469 1469 1470 1471 1471 1473 1474 1475 1477 1478 1479 1480 1481 1482 1483 1484 1484 1485 1485 1486 1486 1486 1486 1485 1485 1484 1484 1483 1482 1481 1479 1477 1474 1472 1469 1467 1464 1460 1457 1452 1447
1465 1465 1466 1466 1467 1468 1469 1470 1471 1472 1474 1475 1476 1477 1478 1479 1480 1480 1481 1482 1482 1482 1483 1482 1482 1482 1482 1481 1480 1480 1479 1478 1477 1475 1472 1470 1467 1465 1462 1458 1455 1451 1447
1462 1463 1463 1463 1464 1465 1466 1468 1469 1470 1471 1472 1473 1474 1475 1476 1477 1478 1478 1479 1479 1479 1479 1479 1479 1479 1478 1478 1477 1476 1476 1474 1473 1471 1470 1468 1465 1463 1460 1457 1453 1449 1445
1461 1461 1461 1462 1462 1463 1464 1465 1466 1467 1468 1469 1470 1471 1472 1473 1474 1475 1476 1476 1476 1476 1476 1476 1476 1476 1475 1475 1474 1473 1472 1471 1470 1468 1467 1465 1462 1460 1457 1454 1450 1446 1441
1459 1460 1460 1460 1461 1462 1462 1463 1464 1465 1466 1467 1468 1469 1469 1470 1471 1472 1473 1473 1473 1473 1473 1473 1473 1473 1473 1472 1471 1470 1468 1467 1466 1464 1463 1461 1459 1456 1454 1451 1448 1445 1440
1458 1458 1458 1459 1459 1460 1461 1462 1462 1463 1464 1465 1466 1466 1467 1468 1469 1470 1470 1470 1470 1470 1470 1470 1470 1470 1470 1469 1468 1468 1467 1465 1463 1461 1459 1457 1455 1453 1451 1449 1446 1444 1440
1456 1456 1457 1457 1458 1458 1459 1460 1461 1461 1462 1463 1463 1464 1465 1466 1467 1467 1467 1468 1468 1468 1468 1468 1468 1467 1467 1466 1466 1465 1464 1462 1460 1458 1456 1454 1452 1450 1448 1446 1444 1442 1439
1454 1455 1455 1455 1456 1456 1457 1458 1459 1459 1460 1460 1461 1462 1463 1464 1464 1464 1465 1465 1466 1466 1465 1465 1465 1465 1464 1464 1463 1462 1461 1460 1458 1456 1454 1452 1450 1448 1446 1444 1441 1439 1436
1453 1453 1453 1453 1454 1454 1455 1456 1456 1457 1458 1458 1459 1460 1460 1461 1462 1462 1462 1463 1463 1463 1463 1463 1463 1463 1462 1462 1461 1460 1459 1457 1456 1454 1453 1451 1449 1446 1444 1442 1439 1436 1433
1451 1451 1452 1452 1452 1452 1453 1454 1454 1455 1456 1457 1457 1458 1458 1459 1460 1460 1460 1460 1460 1461 1461 1461 1461 1460 1460 1459 1459 1458 1457 1456 1454 1453 1451 1449 1447 1444 1442 1440 1438 1435 1432
1450 1450 1450 1450 1450 1451 1451 1452 1452 1453 1454 1455 1456 1456 1457 1457 1458 1458 1458 1458 1458 1459 1459 1458 1458 1458 1458 1457 1457 1456 1455 1454 1452 1451 1449 1448 1445 1443 1441 1439 1436 1434 1431
1448 1448 1448 1448 1448 1448 1449 1449 1449 1451 1452 1452 1453 1454 1454 1455 1455 1456 1456 1456 1457 1457 1457 1456 1456 1456 1456 1456 1455 1454 1453 1452 1451 1449 1448 1446 1444 1442 1440 1437 1435 1433 1430
1446 1446 1446 1446 1446 1446 1447 1447 1448 1448 1449 1449 1451 1451 1452 1453 1453 1454 1454 1455 1455 1455 1455 1455 1455 1455 1455 1455 1454 1453 1452 1450 1449 1448 1446 1445 1443 1441 1438 1436 1434 1432 1429
1444 1444 1444 1444 1444 1444 1445 1445 1446 1446 1447 1447 1448 1449 1450 1450 1451 1452 1452 1453 1453 1453 1453 1453 1453 1453 1453 1453 1452 1451 1450 1449 1448 1446 1445 1443 1442 1440 1437 1435 1433 1431 1428
1442 1442 1442 1442 1442 1442 1443 1443 1444 1444 1445 1445 1446 1447 1448 1449 1449 1450 1450 1450 1451 1451 1451 1451 1451 1452 1451 1451 1450 1449 1448 1447 1446 1445 1444 1442 1440 1439 1437 1434 1432 1430 1428
1440 1439 1439 1439 1440 1440 1441 1441 1442 1442 1443 1444 1444 1445 1446 1447 1447 1448 1448 1449 1449 1449 1449 1449 1449 1449 1449 1449 1448 1448 1447 1446 1445 1443 1442 1441 1439 1437 1436 1434 1432 1430 1428
1437 1437 1437 1437 1438 1438 1439 1440 1440 1441 1442 1442 1443 1444 1444 1445 1445 1446 1446 1447 1447 1447 1448 1448 1447 1447 1447 1447 1446 1446 1445 1444 1443 1442 1440 1439 1438 1436 1435 1433 1431 1430 1428
1435 1435 1435 1435 1436 1437 1438 1438 1439 1440 1440 1441 1441 1442 1442 1443 1443 1444 1444 1445 1445 1445 1446 1446 1445 1445 1445 1445 1444 1444 1443 1442 1441 1440 1439 1438 1437 1435 1434 1432 1431 1429 1428
1433 1433 1433 1434 1435 1435 1436 1437 1438 1438 1439 1440 1440 1441 1441 1441 1442 1442 1442 1443 1443 1443 1443 1443 1443 1443 1443 1443 1442 1442 1441 1440 1440 1439 1438 1437 1436 1434 1433 1432 1431 1430 1428
1432 1432 1432 1433 1433 1434 1435 1436 1436 1437 1438 1438 1439 1439 1439 1440 1440 1440 1441 1441 1441 1441 1441 1441 1441 1441 1441 1440 1440 1439 1439 1439 1438 1437 1437 1436 1435 1434 1433 1432 1431 1430 1428
1430 1430 1431 1431 1432 1433 1434 1434 1435 1436 1436 1437 1437 1438 1438 1438 1439 1439 1439 1439 1440 1440 1440 1440 1439 1439 1439 1438 1438 1437 1437 1437 1436 1436 1435 1435 1434 1433 1433 1432 1431 1430 1429